Preview of NWS' New Version of Forecast
This preview is not operational and should not be used for support decisions.

Regional Weather Roundup (RWR)

Issued by Green Bay, WI (GRB)

                            
000
ASUS43 KGRB 160811
RWRGRB

NORTH-CENTRAL AND NORTHEAST WISCONSIN REGIONAL WEATHER ROUNDUP
NATIONAL WEATHER SERVICE GREEN BAY WI
300 AM CDT TUE OCT 16 2018

WIZ005-009-010>012-018-019-160900-
NORTH CENTRAL WISCONSIN
  
CITY           SKY/WX    TMP DP  RH WIND       PRES   REMARKS
IRONWOOD       CLOUDY    38  26  62 SW14G23   29.83F                  
MANITOWISH WTR CLOUDY    36  25  64 SW10G20   29.86F                  
ARBOR VITAE    CLOUDY    37  27  67 SW10G16   29.88S                  
EAGLE RIVER    CLOUDY    34  25  69 SW8       29.87F                  
LAND O LAKES   CLOUDY    36  26  68 SW6       29.87F                  
RHINELANDER    CLOUDY    36  23  59 SW10      29.90F                  
PHILLIPS       CLOUDY    36  25  65 SW13G21   29.89F                  
ANTIGO         CLOUDY    32  28  83 SW13      29.95F                  
TOMAHAWK       CLOUDY    35  24  64 SW3       29.92F                  
MERRILL        CLOUDY    35  27  72 SW7       29.96F                  
$$

WIZ013-073-160900-
NORTHEAST WISCONSIN
  
CITY           SKY/WX    TMP DP  RH WIND       PRES   REMARKS
IRON MOUNTAIN  CLOUDY    37  27  67 SW8       29.89F                  
MARINETTE      CLOUDY    35  28  75 SW8       30.00F                  
OCONTO         CLOUDY    35  28  75 SW7       30.01F                  
$$

WIZ017-030-035>037-045-160900-
CENTRAL WISCONSIN
  
CITY           SKY/WX    TMP DP  RH WIND       PRES   REMARKS
MEDFORD        CLOUDY    33  26  73 SW9       29.94F                  
WAUSAU         CLOUDY    35  27  72 SW6       29.96F                  
MOSINEE        CLOUDY    34  30  86 SW9       29.99F                  
MARSHFIELD     CLOUDY    34  27  75 SW12      29.97F                  
WISC RAPIDS    CLOUDY    36  24  62 SW12G18   30.03F                  
STEVENS POINT  CLOUDY    33  26  74 SW10      30.01F                  
WAUPACA        MOCLDY    33  28  82 S9        30.04F                  
SHAWANO        CLOUDY    36  29  76 SW5       30.00F                  
CLINTONVILLE   CLOUDY    34  28  76 SW8       30.02F                  
WAUTOMA        FAIR      31  27  85 S6        30.06                   
$$

WIZ038-039-048-051-160900-
FOX VALLEY
  
CITY           SKY/WX    TMP DP  RH WIND       PRES   REMARKS
NWS GREEN BAY  FAIR      36  29  75 S10       30.04F                  
APPLETON       FAIR      32  27  80 SW10      30.03F                  
OSHKOSH        FAIR      33  27  78 S9        30.06F                  
FOND DU LAC    FAIR      34  28  79 SW9       30.09F                  
$$

WIZ022-050-052-160900-
EAST CENTRAL WISCONSIN
  
CITY           SKY/WX    TMP DP  RH WIND       PRES   REMARKS
EPHRAIM        CLOUDY    41  28  58 W13G23    29.98F                  
WASHINGTON ISL PTSUNNY   42  29  60 W16G26    29.98F                  
STURGEON BAY   MOCLDY    35  28  75 SW9       30.02F                  
MANITOWOC      FAIR      36  27  69 SW8       30.07F                  
SHEBOYGAN      FAIR      34  27  75 SW10      30.09F                  
$$

LMZ563-521-522-541>543-160900-
LAKESHORE
  
STATION/POSITION TIME  TEMP    WIND        PRES    VSBY  WAVE
                       AIR SEA DIR/SP/G                  HT/PER
                 (UTC) (F)     (DEG/KT/KT) (MB)    (MI)  (FT/S)
SHEBOYGAN LKSHOR 0800   36     230/  8/ 10 1019.6F
KEWAUNEE LKSHORE 0748   35     230/  6/ 10 1016.8F
NORTHPORT PIER   0740   43     250/  2/  6 1015.9F
N MID LAKE BUOY  0750   45     240/ 21/ 27 1015.4F         4/ 6
S GREEN BAY BUOY 0800   51 54  220/ 21/ 25 1016.1
CHAMBERS ISLAND  0740   41     210/ 11/ 21 1015.2F
MENOMINEE LKSHOR 0748   37 51  210/  9/ 17 1015.5F
$$